Location: Colebrook
(42.0017°N, 73.0973°W)
Time: 05:08:06
(UTC-04:00)

Vanguard 1 Rocket - Visible Passes

Search period start: 21 October 2021 00:00
Search period end: 31 October 2021 00:00
Orbit: 650 x 4226 km, 34.3° (Epoch: 20 October)

Date Brightness Start Highest point End Pass type
(mag) Time Alt. Az. Time Alt. Az. Time Alt. Az.
21 Oct 9.1 18:26:07 10° W 18:32:37 30° SSW 18:36:59 10° SE visible
22 Oct 9.5 19:43:09 10° WSW 19:45:31 12° SW 19:47:37 10° SSW visible
23 Oct 9.3 18:28:54 10° W 18:35:08 25° SSW 18:39:26 10° SSE visible
25 Oct 9.6 18:31:50 10° W 18:37:33 21° SW 18:41:38 10° S visible
27 Oct 9.9 18:35:03 10° WSW 18:39:50 16° SW 18:43:28 10° S visible
29 Oct 10.3 18:38:54 10° WSW 18:41:59 12° SW 18:44:34 10° SSW visible
